FW4226 Weather Reports


time (UTC)temp
F
wind
direction
speed
knots
gust
knots
rain 1hr
in
rain 24hr
in
rain mn
in
humidity
%
barometer
mb
20260505214001 51 3 0.9 5.2 0.00 0.00 0.00 79 1013.9
20260505213500 51 278 0.9 4.3 0.00 0.00 0.00 79 1013.8
20260505213001 51 347 0.9 3.5 0.00 0.00 0.00 79 1013.7
20260505212501 51 39 0.9 4.3 0.00 0.00 0.00 78 1013.6
20260505212001 52 268 0.9 5.2 0.00 0.00 0.00 78 1013.7
20260505211501 52 29 0.9 5.2 0.00 0.00 0.00 78 1013.6
20260505210501 52 320 0.9 3.5 0.00 0.00 0.00 77 1013.6
20260505205503 53 244 0.9 4.3 0.00 0.00 0.00 76 1013.6
20260505205001 53 290 0.9 4.3 0.00 0.00 0.00 77 1013.6
20260505204500 53 50 1.7 4.3 0.00 0.00 0.00 77 1013.5
20260505203501 53 32 0.9 4.3 0.00 0.00 0.00 77 1013.4
20260505203002 53 303 0.9 4.3 0.00 0.00 0.00 77 1013.4
20260505202501 54 356 0.9 2.6 0.00 0.00 0.00 78 1013.4
20260505201501 54 348 0.9 5.2 0.00 0.00 0.00 77 1013.3
20260505201001 54 36 0.0 5.2 0.00 0.00 0.00 77 1013.2
20260505200500 54 38 0.9 1.7 0.00 0.00 0.00 78 1013.2
20260505200002 54 330 0.9 4.3 0.00 0.00 0.00 78 1013.2
20260505195502 54 36 0.9 4.3 0.00 0.00 0.00 78 1013.2
20260505195015 54 346 0.9 2.6 0.00 0.00 0.00 78 1013.2
20260505194504 54 358 0.9 4.3 0.00 0.00 0.00 78 1013.0
20260505194001 54 117 0.9 2.6 0.00 0.00 0.00 78 1013.0
20260505193001 55 332 0.0 4.3 0.00 0.00 0.00 78 1012.9
20260505192501 55 36 0.0 1.7 0.00 0.00 0.00 78 1012.8
20260505191501 55 13 0.9 3.5 0.00 0.00 0.00 77 1012.7
20260505191000 55 355 0.9 3.5 0.00 0.00 0.00 77 1012.8
20260505190501 55 41 0.9 5.2 0.00 0.00 0.00 76 1012.7
20260505190007 56 343 0.9 4.3 0.00 0.00 0.00 76 1012.7
20260505185501 56 353 0.9 3.5 0.00 0.00 0.00 75 1012.7
20260505185001 56 336 0.9 4.3 0.00 0.00 0.00 75 1012.7
20260505184500 56 12 0.9 4.3 0.00 0.00 0.00 74 1012.6
20260505183500 57 305 0.9 4.3 0.00 0.00 0.00 72 1012.5
20260505183000 57 10 0.9 4.3 0.00 0.00 0.00 72 1012.4
20260505182500 57 26 0.9 2.6 0.00 0.00 0.00 72 1012.4
20260505182001 57 341 0.9 3.5 0.00 0.00 0.00 72 1012.4
20260505181500 57 292 0.9 2.6 0.00 0.00 0.00 72 1012.4
20260505181001 57 330 0.9 5.2 0.00 0.00 0.00 72 1012.4
20260505180500 57 322 1.7 5.2 0.00 0.00 0.00 72 1012.4
20260505180008 57 308 0.9 4.3 0.00 0.00 0.00 72 1012.4
20260505175501 57 56 0.9 3.5 0.00 0.00 0.00 73 1012.5
20260505174501 57 5 0.0 2.6 0.00 0.00 0.00 74 1012.4
20260505174002 57 25 0.0 4.3 0.00 0.00 0.00 73 1012.5
20260505173500 57 343 0.0 0.9 0.00 0.00 0.00 74 1012.4
20260505172501 57 333 0.9 1.7 0.00 0.00 0.00 73 1012.5
20260505172002 57 302 0.9 4.3 0.00 0.00 0.00 73 1012.5
20260505171459 57 323 0.0 4.3 0.00 0.00 0.00 73 1012.6
20260505171007 57 329 0.0 1.7 0.00 0.00 0.00 74 1012.5
20260505170501 57 22 0.9 2.6 0.00 0.00 0.00 73 1012.6
20260505170006 57 306 0.0 2.6 0.00 0.00 0.00 74 1012.6
20260505165500 57 356 0.0 1.7 0.00 0.00 0.00 74 1012.7
20260505165000 57 342 0.9 1.7 0.00 0.00 0.00 74 1012.6
20260505163500 57 30 0.0 2.6 0.00 0.00 0.00 73 1012.8
20260505163000 57 22 0.0 2.6 0.00 0.00 0.00 73 1012.7
20260505162500 57 27 0.0 1.7 0.00 0.00 0.00 72 1012.6
20260505162000 57 15 0.0 0.9 0.00 0.00 0.00 73 1012.6
20260505161459 57 36 0.0 0.9 0.00 0.00 0.00 73 1012.6
20260505161000 57 36 0.0 2.6 0.00 0.00 0.00 73 1012.6
20260505160500 57 12 0.0 2.6 0.00 0.00 0.00 73 1012.6
20260505153000 58 353 0.9 2.6 0.00 0.00 0.00 71 1012.7
20260505152500 58 48 0.9 2.6 0.00 0.00 0.00 71 1012.7
20260505152000 58 339 0.9 2.6 0.00 0.00 0.00 71 1012.7
20260505151000 58 29 1.7 6.1 0.00 0.00 0.00 72 1012.7
20260505150459 58 347 0.9 6.1 0.00 0.00 0.00 73 1012.8
20260505140500 59 313 0.9 5.2 0.00 0.00 0.00 72 1013.0
20260505124959 60 36 0.9 4.3 0.00 0.00 0.00 66 1013.1
20260505124459 60 322 0.9 4.3 0.00 0.00 0.00 68 1013.1
20260505124000 60 11 0.9 4.3 0.00 0.00 0.00 67 1013.1
20260505123459 60 288 0.9 5.2 0.00 0.00 0.00 68 1013.0
20260505123000 60 43 1.7 5.2 0.00 0.00 0.00 68 1013.1
20260505122459 60 306 0.9 5.2 0.00 0.00 0.00 69 1013.1
20260505121459 59 12 1.7 4.3 0.00 0.00 0.00 71 1013.2
20260505120959 59 289 1.7 4.3 0.00 0.00 0.00 71 1013.2
20260505120459 59 311 1.7 4.3 0.00 0.00 0.00 71 1013.1
20260505120006 59 7 1.7 5.2 0.00 0.00 0.00 71 1013.2
20260505115500 59 339 1.7 3.5 0.00 0.00 0.00 73 1013.3
20260505115000 59 17 1.7 4.3 0.00 0.00 0.00 71 1013.2
20260505114459 59 332 1.7 4.3 0.00 0.00 0.00 70 1013.2
20260505113959 59 332 0.9 4.3 0.00 0.00 0.00 72 1013.1
20260505113458 59 12 1.7 3.5 0.00 0.00 0.00 70 1013.2
20260505113000 59 6 0.9 4.3 0.00 0.00 0.00 70 1013.2
20260505112459 59 326 0.9 2.6 0.00 0.00 0.00 70 1013.3
20260505112000 59 322 0.9 2.6 0.00 0.00 0.00 71 1013.3
20260505111459 59 278 0.9 3.5 0.00 0.00 0.00 68 1013.3
20260505111000 58 69 0.9 3.5 0.00 0.00 0.00 68 1013.5
20260505110459 58 359 0.9 3.5 0.00 0.00 0.00 67 1013.4
20260505102000 59 301 0.9 3.5 0.00 0.00 0.00 74 1013.7
20260505101459 58 29 0.9 4.3 0.00 0.00 0.00 76 1013.6
20260505100959 57 333 1.7 4.3 0.00 0.00 0.00 74 1013.7
20260505100005 58 348 0.9 4.3 0.00 0.00 0.00 74 1013.7
20260505095500 57 297 0.9 7.0 0.00 0.00 0.00 76 1013.7
20260505094959 57 23 0.9 7.0 0.00 0.00 0.00 76 1013.8
20260505094500 56 38 0.9 4.3 0.00 0.00 0.00 76 1013.9
20260505094000 56 359 1.7 4.3 0.00 0.00 0.00 76 1013.9
20260505093500 56 23 1.7 7.0 0.00 0.00 0.00 77 1014.0
20260505093000 56 59 1.7 7.0 0.00 0.00 0.00 76 1014.0
20260505092459 56 73 0.9 3.5 0.00 0.00 0.00 78 1013.9
20260505092000 55 30 0.9 2.6 0.00 0.00 0.00 79 1014.0
20260505091458 55 52 0.9 2.6 0.00 0.00 0.00 81 1014.0
20260505090500 54 285 0.9 4.3 0.00 0.00 0.00 81 1014.0
20260505090004 54 19 1.7 3.5 0.00 0.00 0.00 82 1014.0
20260505085500 54 27 0.9 3.5 0.00 0.00 0.00 82 1014.1
20260505084959 54 29 0.9 3.5 0.00 0.00 0.00 81 1014.1
20260505084000 54 289 0.9 1.7 0.00 0.00 0.00 83 1014.2
20260505083458 53 359 0.9 1.7 0.00 0.00 0.00 84 1014.1
20260505083001 53 340 0.9 2.6 0.00 0.00 0.00 85 1014.2
20260505082459 53 2 0.9 2.6 0.00 0.00 0.00 84 1014.3
20260505082000 53 14 0.9 3.5 0.00 0.00 0.00 85 1014.3
20260505081500 53 16 1.7 3.5 0.00 0.00 0.00 85 1014.3
20260505080959 53 13 1.7 6.1 0.00 0.00 0.00 87 1014.2
20260505080459 52 40 1.7 3.5 0.00 0.00 0.00 88 1014.2
20260505074958 51 18 0.9 1.7 0.00 0.00 0.00 90 1014.2
20260505073958 50 40 1.7 4.3 0.00 0.00 0.00 91 1014.2
20260505073457 50 358 0.9 5.2 0.00 0.00 0.00 91 1014.2
20260505072958 50 26 0.0 2.6 0.00 0.00 0.00 92 1014.3
20260505071458 49 336 0.0 1.7 0.00 0.00 0.00 92 1014.3
20260505070958 49 336 0.0 1.7 0.00 0.00 0.00 93 1014.3
20260505070002 49 19 0.0 3.5 0.00 0.00 0.00 93 1014.3
20260505065458 49 23 0.0 3.5 0.00 0.00 0.00 93 1014.3
20260505064958 49 14 0.0 1.7 0.00 0.00 0.00 93 1014.2
20260505064459 49 38 0.0 1.7 0.00 0.00 0.00 94 1014.2
20260505063958 49 54 0.0 0.9 0.00 0.00 0.00 94 1014.3
20260505063457 49 54 0.0 0.9 0.00 0.00 0.00 94 1014.2
20260505062958 49 53 0.0 0.9 0.00 0.00 0.00 94 1014.2
20260505062458 49 348 0.0 0.0 0.00 0.00 0.00 94 1014.2
20260505061958 49 348 0.0 0.0 0.00 0.00 0.00 94 1014.3
20260505061458 48 348 0.0 0.9 0.00 0.00 0.00 95 1014.4
20260505060959 48 348 0.0 0.9 0.00 0.00 0.00 95 1014.3
20260505060458 48 349 0.0 0.9 0.00 0.00 0.00 95 1014.4
20260505060005 48 349 0.0 0.9 0.00 0.00 0.00 95 1014.3
20260505054958 47 349 0.0 0.0 0.00 0.00 0.00 95 1014.4
20260505052958 46 349 0.0 0.0 0.00 0.00 0.00 95 1014.4
20260505052459 46 349 0.0 0.0 0.00 0.00 0.00 95 1014.4
20260505051958 46 349 0.0 0.0 0.00 0.00 0.00 95 1014.3
20260505050958 46 349 0.0 0.0 0.00 0.00 0.00 95 1014.3
20260505050457 46 349 0.0 0.0 0.00 0.00 0.00 95 1014.3
20260505041458 44 1 0.0 1.7 0.00 0.00 0.00 95 1014.5
20260505040958 44 360 0.0 1.7 0.00 0.00 0.00 95 1014.5
20260505040458 43 334 0.0 0.0 0.00 0.00 0.00 94 1014.5
20260505040001 43 332 0.0 0.0 0.00 0.00 0.00 94 1014.4
20260505035458 43 332 0.0 0.0 0.00 0.00 0.00 94 1014.5
20260505034958 43 332 0.0 0.0 0.00 0.00 0.00 94 1014.4
20260505034458 43 332 0.0 0.0 0.00 0.00 0.00 94 1014.4
20260505033958 43 332 0.0 0.0 0.00 0.00 0.00 94 1014.5
20260505033458 43 332 0.0 0.0 0.00 0.00 0.00 95 1014.7
20260505032958 43 332 0.0 0.0 0.00 0.00 0.00 95 1014.6
20260505032458 42 332 0.0 0.0 0.00 0.00 0.00 94 1014.6
20260505031959 42 332 0.0 0.9 0.00 0.00 0.00 94 1014.5
20260505031457 42 332 0.0 0.9 0.00 0.00 0.00 94 1014.6
20260505030958 42 332 0.0 0.9 0.00 0.00 0.00 95 1014.7
20260505025457 42 332 0.0 0.0 0.00 0.00 0.00 94 1014.7
20260505024958 42 332 0.0 0.0 0.00 0.00 0.00 93 1014.7
20260505024458 42 333 0.0 0.0 0.00 0.00 0.00 94 1014.8
20260505022457 43 332 0.0 0.0 0.00 0.00 0.00 93 1014.8
20260505021458 43 333 0.0 0.9 0.00 0.00 0.00 93 1014.6
20260505021003 43 332 0.0 0.9 0.00 0.00 0.00 93 1014.5
20260505020458 44 332 0.0 0.0 0.00 0.00 0.00 94 1014.5
20260505020007 44 311 0.0 0.0 0.00 0.00 0.00 93 1014.7
20260505015458 44 311 0.0 0.0 0.00 0.00 0.00 93 1014.8
20260505015006 44 311 0.0 0.0 0.00 0.00 0.00 94 1014.9
20260505014457 44 311 0.0 0.0 0.00 0.00 0.00 94 1014.8
20260505014005 44 311 0.0 0.0 0.00 0.00 0.00 94 1015.0
20260505013457 43 291 0.0 0.0 0.00 0.00 0.00 93 1015.0
20260505013000 43 291 0.0 0.0 0.00 0.00 0.00 92 1015.2
20260505012457 44 291 0.0 0.0 0.00 0.00 0.00 92 1015.2
20260505011458 44 291 0.0 0.0 0.00 0.00 0.00 92 1015.1
20260505011006 44 291 0.0 0.0 0.00 0.00 0.00 92 1015.1
20260505010458 44 291 0.0 0.0 0.00 0.00 0.00 92 1015.1
20260505010009 45 291 0.0 0.0 0.00 0.00 0.00 91 1015.1
20260505005457 45 291 0.0 0.0 0.00 0.00 0.00 91 1015.1
20260505005005 46 291 0.0 0.0 0.00 0.00 0.00 91 1015.2
20260505004459 46 291 0.0 0.0 0.00 0.00 0.00 91 1015.2
20260505004004 46 291 0.0 0.0 0.00 0.00 0.00 91 1015.2
20260505003457 47 291 0.0 0.0 0.00 0.00 0.00 91 1015.2
20260505002959 47 291 0.0 0.0 0.00 0.00 0.00 91 1015.2
20260505002458 47 291 0.0 0.0 0.00 0.00 0.00 91 1015.3
20260505002006 48 291 0.0 0.0 0.00 0.00 0.00 90 1015.4
20260505001004 48 291 0.0 0.0 0.00 0.00 0.00 90 1015.2
20260505000458 49 291 0.0 0.0 0.00 0.00 0.00 90 1015.3
20260505000007 49 291 0.0 0.0 0.00 0.00 0.00 89 1015.4
20260504235457 49 291 0.0 0.0 0.00 0.00 0.00 89 1015.5
20260504235002 50 291 0.0 0.0 0.00 0.00 0.00 88 1015.6
20260504234502 50 291 0.0 0.0 0.00 0.00 0.00 88 1015.5
20260504234005 51 291 0.0 0.9 0.00 0.00 0.00 87 1015.6
20260504233502 51 291 0.0 0.9 0.00 0.00 0.00 87 1015.5
20260504233002 51 291 0.0 0.9 0.00 0.00 0.00 87 1015.5
20260504232502 52 291 0.0 0.9 0.00 0.00 0.00 87 1015.5
20260504232002 52 291 0.0 0.9 0.00 0.00 0.00 87 1015.5
20260504231002 52 291 0.0 1.7 0.00 0.00 0.00 87 1015.3
20260504230502 52 294 0.0 1.7 0.00 0.00 0.00 87 1015.5
20260504230007 52 348 0.0 1.7 0.00 0.00 0.00 86 1015.4
20260504225002 52 350 0.0 0.9 0.00 0.00 0.00 86 1015.6
20260504224502 52 351 0.0 0.9 0.00 0.00 0.00 86 1015.7
20260504224002 52 349 0.0 1.7 0.00 0.00 0.00 86 1015.6
20260504223502 52 317 0.0 0.9 0.00 0.00 0.00 86 1015.6
20260504223003 52 304 0.0 0.9 0.00 0.00 0.00 86 1015.6
20260504222501 52 300 0.0 0.9 0.00 0.00 0.00 86 1015.7
20260504222002 53 299 0.0 0.9 0.00 0.00 0.00 86 1015.7
20260504221502 53 295 0.0 0.9 0.00 0.00 0.00 86 1015.6
20260504221002 53 311 0.0 0.9 0.00 0.00 0.00 86 1015.7
20260504220501 53 307 0.0 2.6 0.00 0.00 0.00 86 1015.7
20260504220006 53 27 0.0 2.6 0.00 0.00 0.00 86 1015.7
20260504215502 53 6 0.0 1.7 0.00 0.02 0.00 86 1015.7
20260504214501 53 347 0.9 3.5 0.00 0.02 0.00 86 1015.8